GW2386 Weather Reports


Display with metric or nautical units.
time (UTC)temp
F
wind
direction
speed
MPH
gust
MPH
rain 1hr
in
rain 24hr
in
rain mn
in
humidity
%
barometer
mb
20260506044554 72 0 0.0 4.0 0.00 0.00 0.00 42 1008.7
20260506043102 71 19 1.0 4.0 0.00 0.00 0.00 42 1008.6
20260506041557 71 0 0.0 1.0 0.00 0.00 0.00 44 1008.3
20260506040059 72 0 0.0 1.0 0.00 0.00 0.00 45 1008.2
20260506034558 73 0 0.0 1.0 0.00 0.00 0.00 44 1008.1
20260506033109 73 0 0.0 2.0 0.00 0.00 0.00 37 1008.2
20260506031556 74 0 0.0 2.0 0.00 0.00 0.00 36 1008.2
20260506024614 77 340 4.0 8.0 0.00 0.00 0.00 32 1007.8
20260506023106 78 337 7.0 10.0 0.00 0.00 0.00 31 1007.5
20260506021601 78 348 7.0 10.0 0.00 0.00 0.00 30 1007.5
20260506020100 78 325 7.0 9.0 0.00 0.00 0.00 30 1007.4
20260506014557 80 360 2.0 5.0 0.00 0.00 0.00 28 1007.3
20260506013101 81 352 3.0 6.0 0.00 0.00 0.00 26 1007.0
20260506011623 83 350 2.0 6.0 0.00 0.00 0.00 24 1006.8
20260506010110 84 296 4.0 11.0 0.00 0.00 0.00 23 1006.6
20260506004557 85 360 4.0 13.0 0.00 0.00 0.00 22 1006.7
20260506003056 86 271 5.0 12.0 0.00 0.00 0.00 23 1006.2
20260506001558 88 254 1.0 7.0 0.00 0.00 0.00 25 1005.9
20260506000100 88 236 3.0 6.0 0.00 0.00 0.00 25 1005.9
20260505234601 89 246 1.0 4.0 0.00 0.00 0.00 24 1005.7
20260505233057 89 253 2.0 9.0 0.00 0.00 0.00 23 1005.5
20260505231557 90 252 7.0 11.0 0.00 0.00 0.00 20 1005.7
20260505230059 92 284 6.0 11.0 0.00 0.00 0.00 19 1005.8
20260505224556 93 257 1.0 13.0 0.00 0.00 0.00 21 1005.7
20260505223055 92 273 3.0 12.0 0.00 0.00 0.00 21 1005.8
20260505221604 92 278 4.0 12.0 0.00 0.00 0.00 21 1005.8
20260505220103 92 360 8.0 16.0 0.00 0.00 0.00 20 1005.8
20260505214601 93 360 6.0 12.0 0.00 0.00 0.00 21 1005.8
20260505213055 92 222 7.0 12.0 0.00 0.00 0.00 21 1006.0
20260505211557 91 236 7.0 13.0 0.00 0.00 0.00 21 1006.1
20260505210057 92 259 6.0 12.0 0.00 0.00 0.00 21 1006.4
20260505204612 92 272 4.0 12.0 0.00 0.00 0.00 23 1006.5
20260505203105 92 247 5.0 12.0 0.00 0.00 0.00 23 1006.6
20260505201555 91 295 5.0 14.0 0.00 0.00 0.00 24 1006.6
20260505200056 91 268 3.0 13.0 0.00 0.00 0.00 24 1006.8
20260505194601 90 284 6.0 12.0 0.00 0.00 0.00 25 1006.9
20260505193056 90 295 5.0 14.0 0.00 0.00 0.00 26 1007.0
20260505191556 90 264 7.0 12.0 0.00 0.00 0.00 27 1007.0
20260505190058 90 276 5.0 16.0 0.00 0.00 0.00 29 1007.4
20260505184556 89 255 8.0 15.0 0.00 0.00 0.00 31 1007.6
20260505183057 89 315 5.0 14.0 0.00 0.00 0.00 33 1007.5
20260505181600 88 291 6.0 15.0 0.00 0.00 0.00 34 1007.7
20260505180055 88 248 4.0 12.0 0.00 0.00 0.00 36 1008.1
20260505174556 88 260 3.0 12.0 0.00 0.00 0.00 37 1008.0
20260505173055 86 360 5.0 13.0 0.00 0.00 0.00 40 1008.1
20260505171556 85 229 4.0 11.0 0.00 0.00 0.00 46 1008.1
20260505170055 84 229 3.0 10.0 0.00 0.00 0.00 49 1008.1
20260505164603 83 219 3.0 8.0 0.00 0.00 0.00 50 1008.0
20260505163056 82 254 5.0 10.0 0.00 0.00 0.00 53 1008.2
20260505161559 80 179 3.0 7.0 0.00 0.00 0.00 61 1008.0
20260505153109 78 215 2.0 9.0 0.00 0.00 0.00 68 1008.0
20260505151556 75 205 5.0 12.0 0.00 0.00 0.00 71 1007.9
20260505124609 67 228 1.0 3.0 0.00 0.00 0.00 85 1007.3
20260505123100 67 236 1.0 6.0 0.00 0.00 0.00 85 1007.2
20260505121556 67 261 1.0 5.0 0.00 0.00 0.00 85 1007.3
20260505120105 67 0 1.0 5.0 0.00 0.00 0.00 84 1007.0
20260505114554 67 182 2.0 5.0 0.00 0.00 0.00 84 1006.8
20260505113114 67 0 0.0 8.0 0.00 0.00 0.00 83 1006.6
20260505111601 67 226 2.0 5.0 0.00 0.00 0.00 83 1006.6
20260505101555 68 192 2.0 8.0 0.00 0.00 0.00 81 1006.4
20260505100057 68 199 4.0 12.0 0.00 0.00 0.00 80 1006.3
20260505094554 68 204 4.0 9.0 0.00 0.00 0.00 79 1006.3
20260505093104 69 171 2.0 8.0 0.00 0.00 0.00 79 1006.5
20260505091555 69 192 2.0 6.0 0.00 0.00 0.00 79 1006.2
20260505090056 68 0 1.0 9.0 0.00 0.00 0.00 79 1006.4
20260505084556 69 208 3.0 8.0 0.00 0.00 0.00 78 1006.7
20260505083100 69 210 4.0 10.0 0.00 0.00 0.00 78 1006.6
20260505081559 69 203 4.0 12.0 0.00 0.00 0.00 77 1006.6
20260505080108 69 198 6.0 12.0 0.00 0.00 0.00 77 1006.7
20260505074557 69 207 5.0 11.0 0.00 0.00 0.00 76 1006.9
20260505073101 70 213 7.0 14.0 0.00 0.00 0.00 76 1007.0
20260505071559 70 203 6.0 12.0 0.00 0.00 0.00 75 1007.3
20260505070058 70 211 4.0 14.0 0.00 0.00 0.00 74 1007.3
20260505064601 70 223 5.0 13.0 0.00 0.00 0.00 74 1007.3
20260505063102 71 200 3.0 13.0 0.00 0.00 0.00 73 1007.6
20260505061600 71 221 6.0 16.0 0.00 0.00 0.00 72 1007.7
20260505060100 72 360 8.0 17.0 0.00 0.00 0.00 71 1007.5